Regional Weather Roundup
Issued by NWS

Home | Current Version | Previous Version | Text Only | Print | Product List | Glossary On
Versions: 1 2 3 4 5 6 7 8 9 10 11 12 13 14 15 16 17 18 19 20 21 22 23 24 25 26 27 28 29 30 31 32 33 34 35 36 37 38 39 40 41 42 43 44 45 46 47 48 49 50
000
ASUS45 KSLC 250310
RWRUT

UTAH REGIONAL WEATHER ROUNDUP
NATIONAL WEATHER SERVICE SALT LAKE CITY UT
900 PM MDT MON APR 24 2017

UTZ001>011-023>025-250400-

NORTHERN UTAH

CITY           SKY/WX    TMP DP  RH WIND       PRES   REMARKS
BRIGHAM CITY   MOCLDY    44  39  83 SE3       29.73R
HILL AFB       MOCLDY    44  36  73 SE5       29.73R
LOGAN          PTCLDY    43  38  82 S6        29.73R
OGDEN          PTCLDY    43  40  89 S8        29.72R
SALT LAKE CITY MOCLDY    47  43  86 S6        29.74R
TOOELE VALLEY  CLEAR     43  39  87 NE5       29.73S
WENDOVER       MOCLDY    50  29  44 N10       29.74R
HEBER CITY     CLOUDY    39  34  81 E7        29.74R WCI  34
WEST JORDAN    CLOUDY    46  46 100 CALM      29.75R

$$

UTZ011>015-024>027-250400-

CENTRAL/NORTHEAST UTAH

CITY           SKY/WX    TMP DP  RH WIND       PRES   REMARKS
PROVO AIRPORT  MOCLDY    45  38  76 N5        29.74R
MOAB/CANYONLAN MOCLDY    57  34  41 NW24G31   29.58R
DELTA          CLOUDY    48  34  57 NE5       29.74R
PRICE          MOCLDY    45  31  58 SW5       29.70S
ROOSEVELT      CLOUDY    46  30  53 W20G28    29.66R
VERNAL         CLOUDY    49  28  44 W8        29.63R

$$

UTZ013>016-019>022-027-250400-

SOUTHERN UTAH

CITY           SKY/WX    TMP DP  RH WIND       PRES   REMARKS
BRYCE CANYON   MOCLDY    49  18  29 W16       29.79R
CEDAR CITY     MOCLDY    54  20  26 VRB5      29.73R
MILFORD        CLOUDY    52  34  50 N13       29.72R
ST GEORGE      CLOUDY    71  26  18 SW9       29.61R
HANKSVILLE     PTCLDY    57  32  38 NW17G29   29.64R
BLANDING       MOCLDY    60  21  22 W12G18    29.72R

$$

REGIONAL REPORTS     COLORADO/ARIZONA

CITY           SKY/WX    TMP DP  RH WIND       PRES   REMARKS
CRAIG, CO      LGT RAIN  36  33  89 VRB3      29.70R
GRAND JUNCTION CLOUDY    59  34  39 NW13      29.59R
RIFLE, CO      CLOUDY    52  36  54 NW17G30   29.61R
MONTROSE, CO   CLOUDY    60  24  25 SW9G17    29.61F
CORTEZ, CO     CLOUDY    52  33  48 CALM      29.68R
COLORADO CITY    N/A     59  27  29 SW3       29.74R
PAGE, AZ       MOCLDY    69  22  16 W8G22     29.63R
GRAND CANYON   CLOUDY    54  28  36 W9        29.82R
KINGMAN, AZ    MOCLDY    67  32  27 S9        29.70R
FLAGSTAFF, AZ  CLOUDY    54  27  35 SW20G28   29.84R

$$

REGIONAL REPORTS    NEVADA/IDAHO/WYOMING

CITY           SKY/WX    TMP DP  RH WIND       PRES   REMARKS
LAS VEGAS, NV  MOCLDY    77  29  17 S12G21    29.58R
ELY, NY        MOCLDY    42  28  57 NW8       29.81R
ELKO, NV       LGT RAIN  40  34  79 NW8       29.80R WCI  34
POCATELLO, ID  MOCLDY    45  37  73 SW22G33   29.69R
BURLEY, ID     PTCLDY    41  36  82 SW13      29.71S
FORT BRIDGER,  CLOUDY    34  34 100 W17       29.74R WCI  24
EVANSTON, WY   FOG       32  32 100 SW9       29.74R VSB 3/4 WCI  24
ROCK SPRINGS,  CLOUDY    37  31  78 W20       29.66R WCI  27
KEMMERER, WY     N/A     32  32 100 W18       29.68R WCI  20

$$



USA.gov is the U.S. government's official web portal to all federal, state and local government web resources and services.